Starlink 32961

operational
NORAD ID: 63122 Int'l Des: 2025-039 Owner: SPXS Country: US Constellation: starlink
LEOCIRCULAR

Über Starlink 32961

Beschreibung wird geladen...

Live-Position

3D-Globus wird geladen...

Nächste Überflüge

Höhenverlauf

Altitude vs Time

uPlot chart will show altitude changes over time

Zweizeiliger Elementsatz

1 63122U 25039U 26034.47764058 .00036144 00000-0 13153-2 0 9992
2 63122 42.9970 206.0665 0002426 288.1440 71.9147 15.27609831 52832
Epoch: 3. Feb. 2026 • Age: 14 hours

Aktueller Status

Höhe 493.6 km
Geschwindigkeit 7.62 km/s
Subsatellitenpunkt -39.75°S, 65.39°W
Startdatum 27. Feb. 2025
Alter 0.9 years
Typ internet

Technische Details

Klassifizierung Payload
Masse 730.00 kg
Trockenmasse 700.00 kg
Gesamtmasse 730.00 kg
Länge 0.30 m
Durchmesser 4.10 m
Spannweite 29.00 m
Form Box + pan
Hersteller SPXS
Bus-Typ Starlink V2M
Phasenstatus In Orbit
Besitzer/Staat SPXS/US

Große Konstellationen

Loading constellations...